This is the latest recevied weather packets stored in our database for station/object KG5WBN. If no packets are shown the sender has not sent any weather packets the latest 10 day(s).
| Time | Temp. | Humidity | Pressure | Rain* | Wind** | Luminosity | Snow |
|---|---|---|---|---|---|---|---|
| 1788119630 | 31.67° C | 42% | 1015.2 hPa | 0 mm | - | 191 W/m² | - |
| 1788119329 | 31.67° C | 46% | 1014.9 hPa | 0 mm | - | 188 W/m² | - |
| 1788119022 | 31.67° C | 46% | 1015.2 hPa | 0 mm | - | 204 W/m² | - |
| 1788118717 | 31.11° C | 48% | 1015.2 hPa | 0 mm | - | 273 W/m² | - |
| 1788118411 | 32.22° C | 44% | 1015.2 hPa | 0 mm | - | 281 W/m² | - |
| 1788118107 | 32.22° C | 44% | 1015.6 hPa | 0 mm | - | 305 W/m² | - |
| 1788117807 | 32.22° C | 44% | 1015.6 hPa | 0 mm | - | 375 W/m² | - |
| 1788117503 | 32.22° C | 44% | 1015.2 hPa | 0 mm | - | 406 W/m² | - |
| 1788117202 | 32.78° C | 44% | 1015.2 hPa | 0 mm | - | 411 W/m² | - |
| 1788116899 | 32.78° C | 44% | 1015.6 hPa | 0 mm | - | 399 W/m² | - |
| 1788116598 | 32.78° C | 44% | 1015.2 hPa | 0 mm | - | 382 W/m² | - |
| 1788116297 | 32.22° C | 44% | 1015.2 hPa | 0 mm | - | 355 W/m² | - |
| 1788115992 | 32.22° C | 44% | 1015.2 hPa | 0 mm | - | 357 W/m² | - |
| 1788115687 | 32.22° C | 44% | 1015.2 hPa | 0 mm | - | 348 W/m² | - |
| 1788115386 | 32.22° C | 44% | 1015.2 hPa | 0 mm | - | 309 W/m² | - |
| 1788115082 | 32.78° C | 44% | 1015.6 hPa | 0 mm | - | 275 W/m² | - |
| 1788114781 | 32.78° C | 44% | 1015.2 hPa | 0 mm | - | 392 W/m² | - |
| 1788114477 | 32.78° C | 44% | 1015.2 hPa | 0 mm | - | 390 W/m² | - |
| 1788114172 | 32.22° C | 44% | 1015.9 hPa | 0 mm | - | 382 W/m² | - |
| 1788113863 | 32.22° C | 44% | 1015.6 hPa | 0 mm | - | 398 W/m² | - |
| 1788113558 | 31.67° C | 50% | 1015.9 hPa | 0 mm | - | 323 W/m² | - |
| 1788113256 | 31.67° C | 50% | 1015.9 hPa | 0 mm | - | 379 W/m² | - |
| 1788112951 | 31.11° C | 50% | 1015.9 hPa | 0 mm | - | 318 W/m² | - |
| 1788112646 | 31.67° C | 50% | 1016.3 hPa | 0 mm | - | 199 W/m² | - |
| 1788112341 | 31.67° C | 50% | 1016.3 hPa | 0 mm | - | 302 W/m² | - |
* Rain latest hour (hover to see other rain measurements)
** Current wind speed in m/s (hover to see current wind gust speed)